Location: Wanzleben
(52.0609°N, 11.4408°E)
Time: 09:32:41
(UTC+00:00)

SPOT 1/Viking Rocket - Pass Details

Date: 18 September 2020
Orbit: 777 x 794 km, 98.5° (Epoch: 30 October)

Event Time Altitude Azimuth Distance (km) Brightness Sun altitude
Exits shadow 19:33:45 37° 92° (E) 1,210 4.1 -20.2°
Maximum altitude 19:34:44 41° 65° (ENE) 1,133 4.1 -20.3°
Drops below altitude 10° 19:39:34 10° 356° (N) 2,352 6.5 -20.9°
Sets 19:41:59 0° 350° (N) 3,283 7.4 -21.2°
